Location: Haliburton Scout Reserve
(45.0900°N, 78.3200°W)
Time: 04:09:35
(UTC-04:00)

PCSat - Pass Details

Date: 25 May 2022
Orbit: 784 x 795 km, 67.1° (Epoch: 24 June)

Event Time Altitude Azimuth Distance (km) Brightness Sun altitude
Rises 00:33:45 0° 334° (NNW) 3,305 14.0 -23.4°
Reaches altitude 10° 00:38:10 10° 7° (N) 2,373 13.0 -23.6°
Maximum altitude 00:39:55 11° 26° (NNE) 2,271 12.7 -23.6°
Drops below altitude 10° 00:41:39 10° 45° (NE) 2,370 12.5 -23.6°
Sets 00:46:03 0° 79° (ENE) 3,296 12.8 -23.7°
